RH
37 32 24 19 18 18 18 19 19 18 19 21 26 30 33 37 38 38 39 41 41 41 44 43 40 38 36 35 34 35 35 36 38 38 36 37 35 33 34 36 36 34 32 31 30 31 35 35 36 37 37 34 32 34 37 39 39 37 35 34 33 32 31 31 31 29 28 30 31 30 30 31 32 33 34 35 34 33 31 30 29 27 26 25 27
48 51 42 28 22 20 20 22 21 20 19 19 24 29 32 34 37 37 38 39 40 40 41 42 41 37 34 32 31 30 30 31 33 33 34 36 35 33 33 36 39 37 34 32 31 33 37 39 37 36 35 33 30 30 33 36 37 36 35 34 32 31 30 28 28 26 25 26 27 27 27 28 29 31 33 33 33 32 29 28 28 27 26 24 24
52 59 57 46 35 27 25 25 25 24 22 20 21 26 31 33 34 36 37 38 38 37 38 40 40 38 34 31 30 30 31 31 30 30 31 32 33 32 31 32 37 38 34 31 31 32 35 37 37 36 34 31 29 28 29 31 34 36 37 37 35 34 33 30 28 26 26 26 25 23 24 25 27 28 30 29 28 27 25 26 26 27 28 26 24
56 55 57 54 48 39 31 29 29 28 25 23 21 22 26 30 32 33 35 35 36 35 35 36 38 38 37 33 31 32 33 34 33 31 30 29 31 32 31 30 32 35 33 31 30 30 32 34 34 34 33 31 30 28 27 28 30 34 37 38 38 37 35 34 32 31 32 31 28 24 22 22 22 24 25 24 23 24 24 26 26 26 28 28 25
63 57 54 55 58 53 43 37 34 32 30 28 25 23 24 26 28 30 31 32 32 32 33 33 34 35 35 35 34 33 34 34 34 34 32 29 29 29 30 30 31 32 32 31 29 29 30 31 31 31 31 31 30 28 29 30 30 31 34 35 36 36 35 35 34 34 34 33 30 26 24 22 21 22 22 21 22 24 25 27 28 28 28 27 26
70 69 64 60 62 64 60 54 47 43 41 37 33 29 27 26 27 27 27 28 29 29 30 30 30 31 31 33 33 33 34 32 32 33 33 31 29 28 28 30 31 32 31 30 29 29 29 29 29 30 30 30 29 28 30 31 31 29 29 31 32 33 33 34 34 33 33 32 31 29 26 24 23 22 22 22 25 27 28 28 28 28 28 27 28
72 75 74 68 64 66 69 67 59 56 56 52 45 38 30 28 29 29 27 26 26 27 29 28 28 29 29 29 29 29 31 30 29 30 31 29 28 27 27 27 30 31 31 30 29 28 28 28 28 28 28 28 28 28 29 31 32 30 27 28 29 30 31 31 31 31 30 30 30 28 25 23 22 22 22 24 28 31 30 28 28 28 28 29 31
73 73 75 73 69 67 69 69 65 65 65 62 58 49 37 32 32 31 28 27 25 25 27 28 28 27 27 27 28 27 27 26 25 25 26 26 25 25 25 25 26 28 30 30 29 29 28 28 28 28 28 28 27 28 28 29 30 30 27 27 26 27 27 27 28 28 28 28 28 26 24 22 21 22 23 25 30 31 30 29 29 30 30 31 31
77 74 74 75 74 72 72 70 70 71 68 64 63 60 51 42 38 36 34 32 31 29 28 27 27 27 26 25 25 25 25 24 22 20 20 21 21 21 22 22 23 24 26 27 28 29 29 29 29 29 30 31 31 30 30 30 30 29 28 27 26 25 25 25 25 26 26 27 26 24 25 23 21 22 25 28 30 29 28 31 33 32 30 28 27
82 77 76 78 78 77 77 74 73 74 70 63 64 66 61 51 44 42 42 40 41 42 40 35 31 27 26 26 24 23 23 23 22 20 18 17 17 18 19 20 20 21 21 22 24 25 28 30 31 32 34 37 37 35 34 33 32 31 30 29 27 26 26 26 26 25 25 24 23 23 23 21 20 22 24 24 25 25 27 31 32 30 29 27 25
85 79 78 83 83 80 79 78 76 76 72 67 65 68 69 62 52 48 47 45 45 50 52 50 43 35 29 27 25 24 22 21 21 21 20 19 17 16 17 18 18 18 18 18 19 20 23 27 29 31 34 36 37 36 35 34 33 32 31 30 29 27 27 26 25 25 25 24 23 22 22 20 19 21 21 22 23 26 29 32 31 30 30 27 25
85 81 79 82 85 83 82 81 78 76 74 70 67 67 69 69 66 61 56 51 50 52 56 56 52 46 38 32 29 28 26 24 22 22 22 22 20 18 17 16 16 16 16 15 16 17 18 21 23 25 28 31 32 32 32 32 31 31 31 30 30 29 28 27 26 25 25 24 23 23 22 21 21 21 22 22 24 26 29 31 32 31 30 27 25
82 81 79 81 85 85 84 83 82 81 78 74 72 69 68 70 70 69 65 60 56 56 57 56 55 54 47 39 34 33 31 29 25 23 23 24 24 23 22 20 18 17 15 14 14 14 15 15 16 17 19 22 25 27 28 28 28 28 28 29 29 29 29 28 28 28 27 25 23 23 22 22 22 21 22 22 23 23 25 26 28 28 27 27 26
74 74 74 77 81 84 85 86 85 85 83 80 77 74 72 70 69 69 68 66 62 60 60 60 60 60 55 48 41 37 35 33 30 27 25 25 25 24 24 24 22 21 19 17 15 14 14 14 14 13 14 15 17 19 21 23 24 24 25 26 27 28 28 28 28 28 27 26 24 23 22 22 20 20 20 21 20 21 22 22 23 24 25 26 25
66 67 71 75 78 80 83 85 84 84 85 84 82 79 77 74 71 70 69 67 65 63 63 63 64 64 62 57 49 42 38 35 34 33 31 30 28 26 25 25 25 24 23 21 19 17 15 15 15 14 14 13 13 14 15 16 18 19 20 22 23 24 26 27 27 27 26 25 23 21 20 19 18 18 18 18 18 19 20 21 22 24 25 24 24
62 65 71 78 80 79 78 79 80 82 84 83 82 82 81 78 76 75 72 69 66 65 64 63 64 65 65 62 56 51 46 41 39 39 39 38 38 35 33 30 27 26 25 24 23 21 19 18 18 18 17 16 15 14 14 15 17 18 18 19 19 20 22 22 23 24 24 23 21 19 18 17 17 16 16 17 18 19 21 22 23 25 26 24 23
56 60 66 73 76 75 73 72 73 76 78 79 79 79 79 77 77 78 77 75 72 70 67 65 65 65 66 65 63 61 57 53 49 47 46 46 46 46 44 41 37 33 30 28 26 25 23 21 20 19 19 19 18 18 18 19 19 19 20 19 19 19 18 18 19 21 22 21 20 19 18 17 17 16 16 17 19 22 25 25 25 27 27 26 24
49 52 55 59 62 63 66 69 70 71 73 74 75 77 78 77 77 78 79 78 76 74 73 72 70 68 67 66 64 64 64 63 60 57 54 53 52 52 51 50 48 46 43 39 35 31 30 29 27 25 24 22 21 21 21 21 21 20 19 18 18 17 15 15 17 17 18 19 19 19 19 18 18 17 18 18 20 24 27 26 26 28 28 27 25
42 44 45 48 51 53 57 64 68 71 73 71 72 75 76 76 76 77 80 82 81 79 76 76 74 72 70 68 64 62 64 66 66 64 64 62 59 57 55 54 53 53 52 51 47 43 40 39 37 35 33 30 28 26 24 23 22 21 20 19 17 14 11 12 14 14 15 16 17 17 18 18 18 18 19 20 21 23 24 24 25 27 27 26 25
39 38 38 39 41 43 47 52 58 64 70 71 71 71 73 73 73 75 78 81 82 82 81 78 76 73 71 70 67 63 63 64 64 64 66 68 67 65 63 60 57 56 56 56 55 53 49 45 42 41 39 38 35 33 31 30 28 25 24 22 20 17 15 15 15 14 14 15 16 17 17 17 18 19 19 19 19 20 20 19 21 23 24 24 24
41 38 35 34 35 35 36 39 43 49 57 63 66 67 69 71 74 77 78 79 80 82 82 80 78 76 74 73 72 70 68 68 67 66 67 70 70 71 71 69 66 63 61 59 59 58 55 51 48 45 43 41 39 37 36 35 34 32 29 27 25 25 25 24 23 21 20 20 19 19 19 19 19 19 19 19 18 18 17 17 17 19 20 21 22
43 42 38 35 34 33 32 33 36 40 46 50 53 57 61 66 71 75 77 78 78 79 79 78 77 76 76 76 75 75 75 74 74 74 75 76 75 74 73 73 73 71 68 66 64 61 60 57 54 51 49 46 43 40 39 38 38 35 31 29 29 30 30 29 28 28 27 25 24 23 22 21 21 20 21 20 19 19 18 17 17 17 18 19 20
41 41 40 37 35 33 31 33 37 41 41 40 41 45 52 58 62 66 68 70 72 74 75 76 75 74 74 74 74 74 75 76 77 78 77 76 75 72 69 69 71 71 70 68 67 65 63 61 59 58 57 54 51 47 44 42 41 38 34 34 34 33 32 31 31 30 29 28 27 25 24 23 21 19 19 20 21 21 20 19 19 19 19 20 21
37 37 38 37 35 32 29 32 40 43 41 38 37 39 45 48 50 54 58 62 66 69 72 73 74 74 72 71 73 76 75 75 75 75 74 72 71 70 68 66 67 67 66 67 67 67 65 63 62 61 60 59 58 55 50 48 46 43 40 39 39 38 36 35 33 32 31 30 29 27 26 26 23 19 17 18 20 22 22 22 22 23 23 23 23
33 33 34 34 34 31 26 28 37 41 40 39 38 37 37 38 39 43 50 55 58 60 62 65 67 68 66 64 69 75 78 77 75 75 78 79 76 75 74 72 71 68 66 65 66 65 65 63 61 59 58 59 60 59 56 51 48 46 45 44 43 42 41 40 39 38 35 32 30 30 29 29 28 24 21 21 21 22 22 22 23 24 25 26 26
28 29 30 29 30 30 24 24 31 36 36 38 39 37 35 35 36 37 39 42 44 45 47 51 56 60 61 60 62 68 74 77 77 79 83 84 83 82 79 76 74 72 68 66 66 65 64 63 62 59 57 57 58 58 57 54 51 48 47 47 46 44 43 42 43 43 41 37 34 32 30 31 31 29 28 27 24 22 21 21 21 21 22 25 27
24 25 26 26 26 27 23 23 28 30 30 31 33 32 32 34 34 32 31 31 33 34 36 39 43 48 54 57 58 62 66 71 74 78 83 84 84 84 82 77 75 74 71 69 68 67 66 65 63 60 58 57 56 54 54 54 53 51 49 48 47 47 46 46 48 49 47 41 38 35 33 32 31 31 31 30 26 22 21 22 21 19 19 22 24
25 25 25 24 25 24 23 23 26 25 24 24 23 23 24 26 27 27 26 27 27 29 31 32 33 36 41 46 51 55 61 65 67 71 77 80 81 83 83 81 78 76 75 73 71 69 68 67 65 63 62 59 58 56 54 52 52 51 49 48 47 48 49 50 52 55 52 45 40 37 33 30 29 30 32 33 30 28 28 27 24 20 19 21 23
27 26 25 25 24 23 23 25 25 23 22 21 18 16 16 17 18 19 21 21 23 26 28 28 28 29 31 34 39 44 50 56 60 64 68 72 75 77 80 81 82 81 79 77 74 71 71 70 69 67 65 62 59 57 55 54 53 50 49 48 47 48 49 49 51 55 55 49 44 38 32 28 28 30 33 34 33 34 36 36 33 30 27 26 25
27 26 26 26 26 25 25 25 25 25 23 21 18 16 14 15 17 18 17 17 18 22 24 25 24 25 27 29 32 36 40 45 51 55 59 63 67 70 73 77 81 82 81 78 75 72 71 72 71 70 69 66 63 59 56 56 55 53 51 51 50 49 49 49 50 53 55 51 44 38 34 33 33 35 37 37 38 40 42 43 43 43 40 37 35
26 26 27 28 28 26 26 26 25 25 24 22 21 20 17 16 17 18 16 14 14 15 18 19 20 23 27 28 29 31 34 38 42 46 50 55 59 63 65 69 73 76 75 75 73 72 71 70 70 69 69 68 66 63 61 60 59 56 54 54 55 54 53 53 52 51 52 50 43 40 40 40 41 42 43 43 45 48 49 48 50 50 49 47 45
27 27 27 28 28 27 27 26 25 25 24 23 23 23 21 19 17 16 14 13 11 11 12 15 18 23 28 30 30 30 31 33 34 37 40 45 50 55 59 63 66 68 69 68 67 68 70 69 66 66 67 68 66 65 65 64 63 60 57 56 57 58 58 59 57 55 53 50 45 43 44 46 47 46 46 47 49 51 52 53 55 56 56 55 52
28 28 27 27 27 27 27 26 25 25 24 24 23 23 22 21 19 16 14 13 12 10 10 13 17 24 29 32 31 30 29 29 29 31 33 36 40 46 51 55 60 63 64 63 63 64 66 67 64 61 62 63 64 64 64 63 63 62 60 58 57 57 58 59 59 60 59 55 49 46 46 48 48 47 46 47 50 52 53 54 57 61 62 60 54
30 29 29 28 29 28 27 27 26 25 25 24 23 22 22 21 19 17 16 14 13 12 11 12 17 24 28 30 30 30 29 28 28 29 30 32 34 37 42 46 50 54 56 59 61 63 65 66 65 60 58 57 58 61 62 62 62 62 61 60 59 59 59 59 58 59 60 58 52 50 50 51 50 50 49 49 49 50 52 53 54 57 58 55 47
30 30 30 29 30 29 29 28 27 26 25 24 23 23 22 21 19 18 16 15 14 13 11 13 19 25 28 27 28 29 30 30 29 29 30 30 31 32 35 39 43 45 46 50 54 58 62 65 65 63 61 58 56 59 63 66 66 64 63 64 64 64 64 63 61 60 61 61 58 57 56 56 55 55 54 53 51 49 48 50 50 51 52 52 47
30 29 29 29 29 28 28 28 26 26 25 24 23 23 21 21 19 19 18 17 16 15 13 15 20 26 27 27 27 29 30 31 31 31 31 30 30 30 32 35 37 39 41 43 46 51 57 62 63 64 64 62 59 59 62 66 69 68 64 63 64 65 66 66 65 65 65 64 62 62 61 60 60 60 60 59 56 52 48 48 49 53 58 61 55
29 29 30 30 29 28 28 27 26 26 25 25 25 24 23 23 24 24 23 21 20 20 21 22 24 26 27 27 28 28 28 30 31 31 31 30 30 30 31 32 34 36 38 39 41 44 51 57 59 60 62 63 63 61 59 60 64 67 66 64 62 63 65 67 67 67 66 64 62 62 64 63 62 63 63 62 59 56 51 50 53 58 60 58 53
30 30 30 30 30 29 29 28 27 27 27 27 26 25 25 25 27 27 27 25 24 25 28 28 28 27 26 26 26 27 28 28 29 30 29 29 29 30 30 31 32 33 35 36 37 38 43 48 53 55 57 59 60 61 60 58 59 62 64 65 64 62 63 65 67 67 67 66 65 64 64 64 63 62 61 60 60 60 58 56 57 55 51 48 49
31 31 30 30 30 29 29 29 29 29 29 29 28 28 28 28 29 29 29 28 27 27 28 28 28 28 27 27 26 27 27 27 28 28 27 26 28 30 31 31 31 30 30 32 35 36 37 40 44 48 51 54 56 57 58 58 59 59 61 63 64 63 62 62 66 69 70 69 67 65 65 66 66 63 61 60 60 60 60 61 59 54 49 49 54
34 33 33 33 32 31 31 31 32 32 32 32 32 32 32 32 32 32 31 30 28 27 28 29 29 29 29 29 28 27 27 27 27 28 27 26 26 29 31 32 31 30 30 31 33 34 35 36 37 39 43 48 52 54 56 57 59 60 60 61 63 64 63 62 64 67 70 70 68 67 68 70 69 66 65 64 64 63 64 65 63 57 53 54 59
36 35 35 34 33 33 33 33 34 35 35 35 35 35 34 34 34 34 33 32 30 30 30 30 31 30 30 30 29 29 29 28 28 28 28 27 26 27 28 30 32 33 34 33 32 33 34 35 36 37 38 41 44 48 51 54 57 59 61 61 62 63 65 65 64 65 67 70 71 71 72 72 70 68 66 65 65 65 65 65 63 59 56 56 60
35 35 35 34 34 34 33 33 34 34 34 35 35 35 35 35 35 35 35 35 34 32 31 30 30 30 31 31 31 31 31 30 29 29 28 28 27 27 27 28 30 33 36 36 34 33 34 35 36 37 37 38 39 41 44 47 51 54 57 60 60 60 62 65 65 63 64 67 70 71 71 70 70 69 67 65 65 65 64 63 63 62 60 58 58
34 34 34 34 34 34 33 33 33 33 33 34 35 35 35 36 36 36 37 37 36 35 33 32 32 32 33 33 33 33 32 32 31 30 29 29 29 28 27 27 28 30 33 35 36 36 36 36 37 37 37 37 38 39 41 42 45 48 50 54 57 57 57 59 62 61 61 62 65 66 66 66 66 67 67 66 67 68 67 65 63 61 60 59 58
32 32 33 32 32 32 33 33 33 33 33 34 35 35 36 36 37 37 37 38 38 38 37 36 35 34 34 34 35 34 33 33 32 31 30 30 30 29 28 28 28 28 30 32 35 37 38 38 38 37 37 38 39 40 41 42 43 45 46 47 51 53 54 54 57 58 58 60 61 62 62 61 61 61 62 63 66 68 69 68 66 65 63 62 62
33 32 31 31 31 32 33 33 32 33 33 34 35 36 37 38 38 39 39 40 40 40 39 39 38 37 36 35 35 34 33 33 33 32 31 31 31 31 31 31 30 30 30 32 33 36 38 39 39 38 38 39 40 41 41 41 42 45 45 45 46 48 51 53 54 55 56 58 61 63 63 61 58 57 57 58 62 66 68 67 67 66 64 62 63
34 33 32 33 35 35 35 35 34 34 34 35 36 37 38 39 40 41 41 41 41 41 41 41 40 39 39 37 36 35 34 34 34 34 33 32 32 32 33 33 32 32 33 33 34 35 37 39 41 41 41 41 42 42 42 42 42 44 45 45 45 46 48 50 53 55 55 56 60 65 67 66 63 60 59 58 59 62 63 62 60 59 58 57 56
30 32 34 36 37 37 36 36 35 35 35 36 37 39 39 40 41 41 42 42 42 41 41 40 40 40 41 41 40 39 37 36 35 35 34 33 33 33 33 33 34 34 34 34 34 36 37 39 41 43 43 43 44 44 44 44 44 44 45 46 46 47 47 48 50 54 57 58 61 64 67 69 67 64 62 61 61 61 59 57 55 55 55 54 52
30 33 35 36 36 35 35 35 35 34 34 35 36 38 40 42 44 44 44 43 43 43 43 42 41 41 42 43 43 43 41 40 39 39 37 35 33 33 33 34 34 34 35 35 35 36 38 39 41 43 44 44 45 46 47 48 47 47 47 47 47 47 48 48 48 51 55 58 61 64 67 68 67 63 59 60 61 61 59 57 54 54 54 55 54
35 36 35 35 35 34 34 34 33 33 33 34 35 37 40 42 44 45 45 45 45 45 45 45 44 43 43 43 44 44 44 44 44 43 41 38 36 35 34 34 34 34 35 35 36 37 38 39 40 42 43 45 45 46 47 49 50 49 49 49 49 48 49 49 49 50 52 54 58 62 64 65 65 61 57 57 59 59 58 57 55 53 54 55 55
37 36 36 36 35 34 34 34 33 33 34 35 37 39 40 42 43 44 44 44 44 44 45 45 45 46 46 46 45 45 46 46 46 46 44 42 40 38 35 35 35 35 36 37 37 39 39 40 40 41 42 44 46 47 47 49 50 50 51 51 51 50 50 50 50 51 52 53 55 57 59 61 61 58 55 55 57 57 55 55 54 54 54 54 54
37 36 36 36 35 34 35 34 34 34 35 36 38 40 41 42 42 43 43 44 44 44 44 45 45 45 47 48 49 49 48 47 47 46 45 44 43 41 39 37 37 37 38 39 41 42 43 42 41 41 42 43 45 46 48 49 49 50 51 52 52 52 52 51 51 52 52 53 54 56 57 58 58 56 53 53 54 55 54 53 53 54 55 55 55